Skip Page Navigation
NASA JPL Caltech
NASA Logo - Jet Propulsion Laboratory + View the NASA Portal
+ Center for Near-Earth Object Studies
JPL Home Earth Solar System Stars & Galaxies Technology
JPL Solar System Dynamics
BODIES ORBITS EPHEMERIDES TOOLS PHYSICAL DATA DISCOVERY FAQ SITE MAP
JPL Small-Body Database Browser
Search: [ help ]  
86681 (2000 FK33)
Classification: Main-belt Asteroid          SPK-ID: 2086681
Ephemeris | Orbit Diagram | Orbital Elements | Mission Design | Physical Parameters | Discovery Circumstances | Close-Approach Data ]

[ show orbit diagram ]
Orbital Elements at Epoch 2459000.5 (2020-May-31.0) TDB
Reference: JPL 18 (heliocentric ecliptic J2000)
 Element Value Uncertainty (1-sigma)   Units 
e .12349001848753 3.6837e-08  
a 2.421959777444604 1.0768e-08 au
q 2.122871919751916 9.137e-08 au
i 7.042468537925195 6.2424e-06 deg
node 35.7180015461452 3.538e-05 deg
peri 228.5508520280406 4.7347e-05 deg
M 64.95392629222762 2.8986e-05 deg
tp 2458752.099924347744
(2019-Sep-25.59992435)
0.00011104 TDB
period 1376.730127636837
3.77
9.1814e-06
2.514e-08
d
yr
n .2614891566424434 1.7439e-09 deg/d
Q 2.721047635137293 1.2098e-08 au
  Orbit Determination Parameters
   # obs. used (total)      631  
   data-arc span      7427 days (20.33 yr)  
   first obs. used      2000-03-29  
   last obs. used      2020-07-29  
   planetary ephem.      DE431  
   SB-pert. ephem.      SB431-N16  
   condition code      0  
   norm. resid. RMS      .55735  
   source      ORB  
   producer      Otto Matic  
   solution date      2020-Aug-25 08:02:03  

Additional Information
 Earth MOID = 1.11522 au 
 Jupiter MOID = 2.34902 au 
 T_jup = 3.492 
[ show covariance matrix ]

Ephemeris | Orbit Diagram | Orbital Elements | Mission Design | Physical Parameters | Discovery Circumstances | Close-Approach Data ]

Physical Parameter Table
Parameter Symbol Value Units Sigma Reference Notes
absolute magnitude H 15.7   n/a MPO432410  

86681 (2000 FK33)          Discovered 2000-Mar-29 by LINEAR at Socorro
Reference: 20040830/Numbers.arcLast Updated: 2004-09-06

[ show close-approach data ]
Ephemeris | Orbit Diagram | Orbital Elements | Mission Design | Physical Parameters | Discovery Circumstances | Close-Approach Data ]
ABOUT SSD CREDITS/AWARDS PRIVACY/COPYRIGHT GLOSSARY LINKS
FirstGov 2020-Sep-23 13:07 UT
(server date/time)  
NASA Home Page
Site Manager:   Ryan S. Park
Webmaster  Alan B. Chamberlin